DW2213 Weather Reports


Display with metric or nautical units.
time (UTC)temp
F
wind
direction
speed
MPH
gust
MPH
rain 1hr
in
rain 24hr
in
rain mn
in
humidity
%
barometer
mb
20260906125805 93 130 2.0 7.0 0.00 0.00 0.00 44 1015.2
20260906125306 93 144 2.0 6.0 0.00 0.00 0.00 43 1015.2
20260906124805 93 145 2.0 7.0 0.00 0.00 0.00 44 1015.2
20260906124304 94 145 2.0 7.0 0.00 0.00 0.00 45 1015.2
20260906123805 94 145 2.0 7.0 0.00 0.00 0.00 42 1015.3
20260906123304 95 142 3.0 8.0 0.00 0.00 0.00 41 1015.4
20260906122306 95 142 1.0 7.0 0.00 0.00 0.00 43 1015.3
20260906121305 96 152 3.0 6.0 0.00 0.00 0.00 44 1015.4
20260906120804 96 135 1.0 5.0 0.00 0.00 0.00 45 1015.4
20260906120304 97 140 1.0 3.0 0.00 0.00 0.00 44 1015.4
20260906115804 97 127 1.0 3.0 0.00 0.00 0.00 44 1015.4
20260906115306 97 112 1.0 3.0 0.00 0.00 0.00 43 1015.5
20260906114805 96 144 0.0 3.0 0.00 0.00 0.00 42 1015.5
20260906114305 96 141 0.0 3.0 0.00 0.00 0.00 42 1015.6
20260906113805 96 131 1.0 3.0 0.00 0.00 0.00 42 1015.6
20260906113305 96 121 0.0 1.0 0.00 0.00 0.00 41 1015.6
20260906112805 96 121 0.0 3.0 0.00 0.00 0.00 41 1015.7
20260906112306 96 98 0.0 2.0 0.00 0.00 0.00 41 1015.6
20260906111305 96 322 0.0 2.0 0.00 0.00 0.00 36 1015.9
20260906110804 96 304 0.0 2.0 0.00 0.00 0.00 31 1015.9
20260906105306 94 304 0.0 0.0 0.00 0.00 0.00 34 1016.0
20260906104804 94 304 0.0 2.0 0.00 0.00 0.00 34 1016.1
20260906104305 94 308 0.0 2.0 0.00 0.00 0.00 35 1016.1
20260906103805 94 345 0.0 0.0 0.00 0.00 0.00 35 1016.2
20260906103305 93 346 0.0 2.0 0.00 0.00 0.00 35 1016.2
20260906102805 93 286 0.0 2.0 0.00 0.00 0.00 36 1016.3
20260906101804 93 287 0.0 2.0 0.00 0.00 0.00 36 1016.3
20260906101305 92 273 0.0 2.0 0.00 0.00 0.00 37 1016.4
20260906100804 92 273 0.0 2.0 0.00 0.00 0.00 36 1016.5
20260906100306 92 273 0.0 1.0 0.00 0.00 0.00 36 1016.4
20260906095804 92 273 0.0 0.0 0.00 0.00 0.00 36 1016.5
20260906095306 91 273 0.0 1.0 0.00 0.00 0.00 36 1016.5
20260906094805 91 273 0.0 1.0 0.00 0.00 0.00 36 1016.5
20260906094305 91 273 0.0 2.0 0.00 0.00 0.00 39 1016.5
20260906093804 90 272 0.0 2.0 0.00 0.00 0.00 42 1016.6
20260906093304 90 272 0.0 2.0 0.00 0.00 0.00 43 1016.5
20260906092804 90 273 0.0 1.0 0.00 0.00 0.00 44 1016.5
20260906092306 89 273 0.0 0.0 0.00 0.00 0.00 45 1016.5
20260906091804 89 273 0.0 0.0 0.00 0.00 0.00 47 1016.5
20260906091305 88 273 0.0 1.0 0.00 0.00 0.00 47 1016.5
20260906090305 87 273 0.0 3.0 0.00 0.00 0.00 48 1016.5
20260906085307 87 267 0.0 0.0 0.00 0.00 0.00 47 1016.4
20260906084804 87 267 0.0 0.0 0.00 0.00 0.00 47 1016.4
20260906083805 86 267 0.0 0.0 0.00 0.00 0.00 48 1016.4
20260906082804 85 267 0.0 2.0 0.00 0.00 0.00 49 1016.4
20260906081804 84 268 0.0 1.0 0.00 0.00 0.00 51 1016.4
20260906081304 84 268 0.0 2.0 0.00 0.00 0.00 57 1016.4
20260906080804 84 282 1.0 3.0 0.00 0.00 0.00 61 1016.4
20260906080304 83 260 0.0 0.0 0.00 0.00 0.00 61 1016.3
20260906075805 83 259 0.0 0.0 0.00 0.00 0.00 61 1016.3
20260906075306 82 261 0.0 0.0 0.00 0.00 0.00 62 1016.3
20260906074804 82 327 0.0 0.0 0.00 0.00 0.00 63 1016.3
20260906074305 81 327 0.0 0.0 0.00 0.00 0.00 64 1016.3
20260906073804 81 327 0.0 0.0 0.00 0.00 0.00 65 1016.2
20260906073304 80 327 0.0 0.0 0.00 0.00 0.00 65 1016.2
20260906072804 80 34 0.0 0.0 0.00 0.00 0.00 66 1016.1
20260906072306 79 43 0.0 0.0 0.00 0.00 0.00 68 1016.1
20260906071304 78 42 0.0 0.0 0.00 0.00 0.00 70 1016.1
20260906070805 77 43 0.0 0.0 0.00 0.00 0.00 71 1016.1
20260906070305 77 43 0.0 0.0 0.00 0.00 0.00 72 1016.0
20260906065805 76 43 0.0 0.0 0.00 0.00 0.00 72 1016.1
20260906065306 76 43 0.0 0.0 0.00 0.00 0.00 73 1016.1
20260906064805 75 43 0.0 0.0 0.00 0.00 0.00 73 1016.1
20260906064304 75 43 0.0 0.0 0.00 0.00 0.00 73 1016.1
20260906063805 75 43 0.0 0.0 0.00 0.00 0.00 74 1016.0
20260906062805 74 43 0.0 0.0 0.00 0.00 0.00 74 1015.9
20260906062306 74 43 0.0 0.0 0.00 0.00 0.00 74 1015.9
20260906061804 74 43 0.0 0.0 0.00 0.00 0.00 74 1016.0
20260906061304 74 43 0.0 0.0 0.00 0.00 0.00 74 1015.9
20260906060804 74 43 0.0 0.0 0.00 0.00 0.00 74 1015.9
20260906060304 74 43 0.0 0.0 0.00 0.00 0.00 74 1015.9
20260906054804 73 43 0.0 0.0 0.00 0.00 0.00 75 1015.7
20260906054304 73 43 0.0 0.0 0.00 0.00 0.00 76 1015.6
20260906053804 73 43 0.0 0.0 0.00 0.00 0.00 76 1015.5
20260906053305 73 43 0.0 0.0 0.00 0.00 0.00 76 1015.5
20260906052805 73 43 0.0 0.0 0.00 0.00 0.00 76 1015.5
20260906052306 73 43 0.0 0.0 0.00 0.00 0.00 77 1015.5
20260906051304 73 43 0.0 0.0 0.00 0.00 0.00 78 1015.5
20260906050805 73 43 0.0 0.0 0.00 0.00 0.00 79 1015.5
20260906050304 73 43 0.0 0.0 0.00 0.00 0.00 79 1015.4
20260906044804 73 43 0.0 0.0 0.00 0.00 0.00 80 1015.3
20260906044304 73 43 0.0 0.0 0.00 0.00 0.00 80 1015.3
20260906043305 74 44 0.0 0.0 0.00 0.00 0.00 80 1015.4
20260906042804 74 44 0.0 0.0 0.00 0.00 0.00 80 1015.4
20260906042306 74 44 0.0 0.0 0.00 0.00 0.00 80 1015.4
20260906041805 74 44 0.0 0.0 0.00 0.00 0.00 81 1015.4
20260906041304 74 44 0.0 0.0 0.00 0.00 0.00 82 1015.4
20260906040804 74 44 0.0 0.0 0.00 0.00 0.00 82 1015.4
20260906040304 74 44 0.0 0.0 0.00 0.00 0.00 83 1015.4
20260906035804 74 44 0.0 0.0 0.00 0.00 0.00 83 1015.4
20260906035306 74 44 0.0 0.0 0.00 0.00 0.00 83 1015.4
20260906034304 74 44 0.0 0.0 0.00 0.00 0.00 82 1015.5
20260906033804 74 44 0.0 0.0 0.00 0.00 0.00 81 1015.5
20260906033304 74 44 0.0 0.0 0.00 0.00 0.00 81 1015.5
20260906032805 74 44 0.0 0.0 0.00 0.00 0.00 81 1015.5
20260906031305 74 44 0.0 0.0 0.00 0.00 0.00 82 1015.6
20260906030804 74 44 0.0 0.0 0.00 0.00 0.00 83 1015.6
20260906030304 74 44 0.0 0.0 0.00 0.00 0.00 83 1015.5
20260906025805 74 44 0.0 0.0 0.00 0.00 0.00 83 1015.5
20260906025306 75 44 0.0 0.0 0.00 0.00 0.00 84 1015.5
20260906023804 75 44 0.0 0.0 0.00 0.00 0.00 84 1015.6
20260906023304 75 44 0.0 0.0 0.00 0.00 0.00 84 1015.6
20260906022804 75 44 0.0 0.0 0.00 0.00 0.00 84 1015.6
20260906022307 75 44 0.0 0.0 0.00 0.00 0.00 84 1015.7
20260906021804 75 44 0.0 0.0 0.00 0.00 0.00 85 1015.7
20260906021304 75 44 0.0 0.0 0.00 0.00 0.00 85 1015.7
20260906020804 75 44 0.0 0.0 0.00 0.00 0.00 85 1015.7
20260906020304 75 44 0.0 0.0 0.00 0.00 0.00 86 1015.8
20260906015804 75 45 0.0 0.0 0.00 0.00 0.00 86 1015.8
20260906015306 75 45 0.0 0.0 0.00 0.00 0.00 87 1015.8
20260906014805 76 44 0.0 0.0 0.00 0.00 0.00 87 1015.9
20260906014304 76 44 0.0 0.0 0.00 0.00 0.00 87 1015.9
20260906013804 76 44 0.0 0.0 0.00 0.00 0.00 87 1016.0
20260906012804 76 44 0.0 0.0 0.00 0.00 0.00 87 1016.0
20260906012306 76 44 0.0 0.0 0.00 0.00 0.00 87 1016.0
20260906011805 76 44 0.0 0.0 0.00 0.00 0.00 87 1016.0
20260906011304 76 44 0.0 0.0 0.00 0.00 0.00 87 1016.0
20260906010804 76 44 0.0 0.0 0.00 0.00 0.00 87 1016.1
20260906010304 76 44 0.0 0.0 0.00 0.00 0.00 87 1016.1
20260906005804 76 44 0.0 0.0 0.00 0.00 0.00 86 1016.1
20260906004804 76 44 0.0 0.0 0.00 0.00 0.00 86 1016.2
20260906004304 76 44 0.0 0.0 0.00 0.00 0.00 85 1016.2
20260906002804 77 44 0.0 0.0 0.00 0.00 0.00 84 1016.2
20260906002306 77 44 0.0 0.0 0.00 0.00 0.00 84 1016.2
20260906001805 77 44 0.0 0.0 0.00 0.00 0.00 84 1016.2
20260906001304 77 44 0.0 0.0 0.00 0.00 0.00 84 1016.1
20260906000804 78 44 0.0 0.0 0.00 0.00 0.00 84 1016.2
20260906000304 78 44 0.0 0.0 0.00 0.00 0.00 84 1016.2
20260905235804 78 44 0.0 0.0 0.00 0.00 0.00 84 1016.2
20260905235306 78 44 0.0 0.0 0.00 0.00 0.00 83 1016.2
20260905234805 78 44 0.0 0.0 0.00 0.00 0.00 83 1016.3
20260905234304 78 44 0.0 0.0 0.00 0.00 0.00 83 1016.3
20260905233804 78 44 0.0 0.0 0.00 0.00 0.00 83 1016.4
20260905233304 78 44 0.0 0.0 0.00 0.00 0.00 83 1016.5
20260905232804 78 44 0.0 0.0 0.00 0.00 0.00 83 1016.5
20260905232306 78 44 0.0 0.0 0.00 0.00 0.00 83 1016.5
20260905231804 78 44 0.0 0.0 0.00 0.00 0.00 83 1016.5
20260905231304 78 44 0.0 0.0 0.00 0.00 0.00 83 1016.5
20260905230304 78 44 0.0 0.0 0.00 0.00 0.00 84 1016.5
20260905225804 78 44 0.0 0.0 0.00 0.00 0.00 84 1016.5
20260905225305 77 44 0.0 0.0 0.00 0.00 0.00 84 1016.6
20260905224804 78 44 0.0 0.0 0.00 0.00 0.00 84 1016.5
20260905224304 78 44 0.0 0.0 0.00 0.00 0.00 84 1016.6
20260905223304 78 44 0.0 0.0 0.00 0.00 0.00 84 1016.5
20260905222306 78 44 0.0 0.0 0.00 0.00 0.00 84 1016.5
20260905221804 78 44 0.0 0.0 0.00 0.00 0.00 85 1016.5
20260905221304 78 44 0.0 0.0 0.00 0.00 0.00 85 1016.4
20260905220816 78 44 0.0 0.0 0.00 0.00 0.00 85 1016.4
20260905220305 78 44 0.0 0.0 0.00 0.00 0.00 85 1016.4
20260905215804 78 44 0.0 0.0 0.00 0.00 0.00 85 1016.5
20260905215306 78 44 0.0 0.0 0.00 0.00 0.00 85 1016.5
20260905214804 78 44 0.0 0.0 0.00 0.00 0.00 85 1016.5
20260905213804 78 44 0.0 0.0 0.00 0.00 0.00 85 1016.6
20260905213304 78 44 0.0 0.0 0.00 0.00 0.00 85 1016.6
20260905211304 79 43 0.0 0.0 0.00 0.00 0.00 83 1016.4
20260905210804 80 44 0.0 0.0 0.00 0.00 0.00 83 1016.3
20260905210304 80 44 0.0 0.0 0.00 0.00 0.00 82 1016.4
20260905205803 81 44 0.0 0.0 0.00 0.00 0.00 83 1016.4
20260905205306 80 43 0.0 0.0 0.00 0.00 0.00 83 1016.4
20260905204804 81 43 0.0 0.0 0.00 0.00 0.00 83 1016.4
20260905204304 80 44 0.0 2.0 0.00 0.00 0.00 83 1016.3
20260905203804 80 44 0.0 2.0 0.00 0.00 0.00 83 1016.4
20260905202804 80 33 0.0 0.0 0.00 0.00 0.00 83 1016.4
20260905202306 81 36 0.0 0.0 0.00 0.00 0.00 83 1016.4
20260905201804 81 42 0.0 0.0 0.00 0.00 0.00 83 1016.4
20260905201305 81 41 0.0 0.0 0.00 0.00 0.00 83 1016.4
20260905200804 81 41 0.0 0.0 0.00 0.00 0.00 83 1016.4
20260905200304 81 40 0.0 0.0 0.00 0.00 0.00 83 1016.3
20260905195804 81 40 0.0 3.0 0.00 0.00 0.00 83 1016.2
20260905194804 81 134 0.0 0.0 0.00 0.00 0.00 83 1016.1
20260905194304 82 134 0.0 0.0 0.00 0.00 0.00 83 1016.1
20260905193804 82 134 0.0 1.0 0.00 0.00 0.00 83 1016.1
20260905193303 82 134 0.0 0.0 0.00 0.00 0.00 83 1016.1
20260905192306 82 134 0.0 1.0 0.00 0.00 0.00 82 1015.9
20260905190303 83 153 0.0 0.0 0.00 0.00 0.00 80 1015.7
20260905185804 83 153 0.0 0.0 0.00 0.00 0.00 79 1015.7
20260905185306 83 152 0.0 0.0 0.00 0.00 0.00 77 1015.6
20260905184304 84 152 0.0 1.0 0.00 0.00 0.00 75 1015.5
20260905183804 85 152 0.0 0.0 0.00 0.00 0.00 74 1015.4
20260905183304 85 152 0.0 0.0 0.00 0.00 0.00 74 1015.4
20260905182803 85 152 0.0 0.0 0.00 0.00 0.00 75 1015.4
20260905182305 85 152 0.0 0.0 0.00 0.00 0.00 75 1015.4
20260905181804 85 152 0.0 1.0 0.00 0.00 0.00 74 1015.3
20260905181304 85 152 0.0 1.0 0.00 0.00 0.00 73 1015.3
20260905180804 86 152 0.0 2.0 0.00 0.00 0.00 72 1015.2
20260905180304 86 152 1.0 2.0 0.00 0.00 0.00 73 1015.3
20260905175306 86 152 0.0 0.0 0.00 0.00 0.00 72 1015.2
20260905174303 86 152 0.0 0.0 0.00 0.00 0.00 72 1015.2
20260905173804 86 152 0.0 3.0 0.00 0.00 0.00 72 1015.2
20260905172803 87 152 0.0 1.0 0.00 0.00 0.00 71 1015.2
20260905172305 87 152 0.0 1.0 0.00 0.00 0.00 70 1015.1
20260905171804 88 151 0.0 2.0 0.00 0.00 0.00 70 1015.1
20260905171303 88 151 0.0 0.0 0.00 0.00 0.00 69 1015.1
20260905170803 88 152 1.0 5.0 0.00 0.00 0.00 69 1015.1
20260905170305 88 154 0.0 3.0 0.00 0.00 0.00 68 1015.0
20260905164805 89 146 2.0 7.0 0.00 0.00 0.00 68 1014.9
20260905164305 89 154 2.0 7.0 0.00 0.00 0.00 69 1014.8
20260905163805 89 113 1.0 3.0 0.00 0.00 0.00 69 1014.8
20260905163305 89 151 2.0 7.0 0.00 0.00 0.00 69 1014.8
20260905162805 89 145 1.0 6.0 0.00 0.00 0.00 69 1014.9
20260905162306 89 156 1.0 3.0 0.00 0.00 0.00 69 1014.9
20260905161805 89 159 1.0 6.0 0.00 0.00 0.00 69 1014.9
20260905161305 89 150 1.0 7.0 0.00 0.00 0.00 69 1014.9
20260905160305 89 150 2.0 9.0 0.00 0.00 0.00 69 1014.8
20260905155805 89 145 1.0 5.0 0.00 0.00 0.00 69 1014.9
20260905154804 89 115 1.0 6.0 0.00 0.00 0.00 70 1014.9
20260905154305 90 109 2.0 6.0 0.00 0.00 0.00 69 1014.9
20260905153805 90 132 1.0 7.0 0.00 0.00 0.00 68 1015.0
20260905153305 90 132 1.0 5.0 0.00 0.00 0.00 66 1015.0
20260905152805 91 131 2.0 7.0 0.00 0.00 0.00 66 1015.0
20260905152306 91 101 1.0 3.0 0.00 0.00 0.00 65 1015.0
20260905151804 91 135 1.0 8.0 0.00 0.00 0.00 66 1015.0
20260905151305 91 126 2.0 5.0 0.00 0.00 0.00 64 1015.0
20260905150805 91 152 3.0 7.0 0.00 0.00 0.00 64 1015.0
20260905150305 91 128 3.0 7.0 0.00 0.00 0.00 64 1015.1
20260905145804 91 124 2.0 8.0 0.00 0.00 0.00 63 1015.2
20260905144805 91 149 3.0 6.0 0.00 0.00 0.00 62 1015.3
20260905144305 92 144 3.0 7.0 0.00 0.00 0.00 61 1015.3
20260905143805 91 139 4.0 9.0 0.00 0.00 0.00 61 1015.3
20260905143305 92 149 3.0 9.0 0.00 0.00 0.00 58 1015.3
20260905142805 92 147 4.0 9.0 0.00 0.00 0.00 55 1015.4
20260905142306 93 143 2.0 7.0 0.00 0.00 0.00 53 1015.4
20260905141805 93 147 3.0 8.0 0.00 0.00 0.00 52 1015.4
20260905141305 94 141 3.0 7.0 0.00 0.00 0.00 52 1015.5
20260905140804 93 133 3.0 8.0 0.00 0.00 0.00 50 1015.5
20260905140305 94 143 2.0 6.0 0.00 0.00 0.00 50 1015.5
20260905135805 94 155 2.0 7.0 0.00 0.00 0.00 48 1015.5
20260905135306 93 148 2.0 6.0 0.00 0.00 0.00 48 1015.6
20260905134805 93 143 3.0 7.0 0.00 0.00 0.00 47 1015.6
20260905134305 94 142 2.0 6.0 0.00 0.00 0.00 48 1015.7
20260905133804 94 143 4.0 9.0 0.00 0.00 0.00 47 1015.7
20260905133305 94 150 2.0 7.0 0.00 0.00 0.00 49 1015.7
20260905131805 94 124 1.0 3.0 0.00 0.00 0.00 53 1016.0
20260905131305 93 139 1.0 5.0 0.00 0.00 0.00 54 1016.1
20260905130805 93 134 2.0 8.0 0.00 0.00 0.00 54 1016.0
20260905130305 94 149 2.0 7.0 0.00 0.00 0.00 54 1016.0